This is the latest recevied weather packets stored in our database for station/object KD9JJA. If no packets are shown the sender has not sent any weather packets the latest 10 day(s).
| Time | Temp. | Humidity | Pressure | Rain* | Wind** | Luminosity | Snow |
|---|---|---|---|---|---|---|---|
| 1777498126 | 17.78° C | 65% | 1013.7 hPa | 0 mm | - | 72 W/m² | - |
| 1777497824 | 17.78° C | 67% | 1013.9 hPa | 0 mm | - | 41 W/m² | - |
| 1777497520 | 17.78° C | 68% | 1013.8 hPa | 0 mm | - | 55 W/m² | - |
| 1777497216 | 17.78° C | 64% | 1013.9 hPa | 0 mm | - | 47 W/m² | - |
| 1777496913 | 17.78° C | 65% | 1014 hPa | 0 mm | - | 71 W/m² | - |
| 1777496610 | 17.78° C | 67% | 1013.8 hPa | 0 mm | - | 48 W/m² | - |
| 1777496306 | 17.78° C | 67% | 1013.9 hPa | 0 mm | - | 147 W/m² | - |
| 1777496001 | 17.78° C | 66% | 1014 hPa | 0 mm | - | 65 W/m² | - |
| 1777495698 | 17.78° C | 67% | 1014.4 hPa | 0 mm | - | 167 W/m² | - |
| 1777495389 | 17.78° C | 62% | 1014 hPa | 0 mm | - | 176 W/m² | - |
| 1777495085 | 17.78° C | 64% | 1014.2 hPa | 0 mm | - | 544 W/m² | - |
| 1777494783 | 17.78° C | 66% | 1014.2 hPa | 0 mm | - | 176 W/m² | - |
| 1777494480 | 17.78° C | 64% | 1014.1 hPa | 0 mm | - | 541 W/m² | - |
| 1777494177 | 17.22° C | 68% | 1014.2 hPa | 0 mm | - | 73 W/m² | - |
| 1777493874 | 17.78° C | 66% | 1014.2 hPa | 0 mm | - | 80 W/m² | - |
| 1777493572 | 17.78° C | 64% | 1014.3 hPa | 0 mm | - | 142 W/m² | - |
| 1777493269 | 17.22° C | 66% | 1014.1 hPa | 0 mm | - | 308 W/m² | - |
| 1777492965 | 17.22° C | 69% | 1014.4 hPa | 0 mm | - | 88 W/m² | - |
| 1777492663 | 17.22° C | 65% | 1014.4 hPa | 0 mm | - | 71 W/m² | - |
| 1777492362 | 17.22° C | 66% | 1014.4 hPa | 0 mm | - | 70 W/m² | - |
| 1777492059 | 17.22° C | 63% | 1014.4 hPa | 0 mm | - | 82 W/m² | - |
| 1777491756 | 17.78° C | 65% | 1014.3 hPa | 0 mm | - | 104 W/m² | - |
| 1777491453 | 17.22° C | 68% | 1014.3 hPa | 0 mm | - | 116 W/m² | - |
| 1777491151 | 17.22° C | 70% | 1014.4 hPa | 0 mm | - | 55 W/m² | - |
| 1777490846 | 17.78° C | 67% | 1014.3 hPa | 0 mm | - | 431 W/m² | - |
* Rain latest hour (hover to see other rain measurements)
** Current wind speed in m/s (hover to see current wind gust speed)